Aberdeen, SD

6:01 AM CDT on July 28, 2017 (GMT -0500)
Aberdeen Regional

Weather History for KABR - July, 2013

Change the Weather History Date:

Monday, July 1, 2013

  Actual Average Record
Temperature  
Mean Temperature 68 °F 70 °F  
Max Temperature 85 °F 82 °F 101 °F (1911)
Min Temperature 51 °F 58 °F 41 °F (1995)
Degree Days  
Heating Degree Days 0 1  
Month to date heating degree days 0 1  
Since 1 June heating degree days 81 77  
Since 1 July heating degree days 0 1  
Cooling Degree Days 3 6  
Month to date cooling degree days 3 6  
Year to date cooling degree days 120 121  
Since 1 June cooling degree days 99 98  
Growing Degree Days 18 (Base 50)    
Moisture  
Dew Point 51 °F    
Average Humidity 62    
Maximum Humidity 96    
Minimum Humidity 28    
Precipitation  
Precipitation 0.00 in 0.10 in 2.24 in (1926)
Month to date precipitation 0.00 0.10  
Year to date precipitation 10.72 10.94  
Sea Level Pressure  
Sea Level Pressure 30.21 in    
Wind  
Wind Speed 2 mph (NNE)    
Max Wind Speed 10 mph    
Max Gust Speed 13 mph    
Visibility 9 miles    
Events      
T = Trace of Precipitation, MM = Missing Value Source: NWS Daily Summary

Daily Weather History Graph

Daily Weather History Graph

Search for Another Location

Airport or City:

Trip Planner

Search our weather history database for the weather conditions in past years. The results will help you decide how hot, cold, wet, or windy it might be!

Date:

Astronomy

Jul. 01, 2013 Rise Set
Actual Time 5:49 AM CDT 9:25 PM CDT
Civil Twilight 5:11 AM CDT 10:03 PM CDT
Nautical Twilight 4:21 AM CDT 10:53 PM CDT
Astronomical Twilight 3:14 AM CDT 11:59 PM CDT
Moon 1:31 AM CDT (7/1) 3:32 PM CDT (7/1)
Length of Visible Light 16h 51m
Length of Day
15h 36m
Waning Crescent, 35% of the Moon is Illuminated
Jul 1
Waning Crescent
Jul 8
New
Jul 15
First Quarter
Jul 22
Full
Jul 29
Last Quarter

Hourly Weather History & Observations

Time (CDT) Temp. Dew Point Humidity Pressure Visibility Wind Dir Wind Speed Gust Speed Precip Events Conditions
12:53 AM 60.1 °F 53.1 °F 78% 30.19 in 9.0 mi North 3.5 mph - N/A   Clear
1:53 AM 57.9 °F 51.1 °F 78% 30.20 in 8.0 mi Calm Calm - N/A   Clear
2:53 AM 55.0 °F 51.1 °F 86% 30.21 in 7.0 mi Calm Calm - N/A   Clear
3:53 AM 53.1 °F 50.0 °F 89% 30.22 in 7.0 mi SW 3.5 mph - N/A   Clear
4:53 AM 51.1 °F 48.9 °F 92% 30.22 in 6.0 mi Calm Calm - N/A   Clear
5:53 AM 51.1 °F 50.0 °F 96% 30.24 in 5.0 mi Calm Calm - N/A   Scattered Clouds
6:53 AM 57.0 °F 53.1 °F 87% 30.24 in 6.0 mi NNE 3.5 mph - N/A   Clear
7:53 AM 63.0 °F 52.0 °F 67% 30.25 in 8.0 mi Calm Calm - N/A   Clear
8:53 AM 66.9 °F 52.0 °F 59% 30.26 in 8.0 mi NNE 4.6 mph - N/A   Scattered Clouds
9:53 AM 73.9 °F 54.0 °F 50% 30.25 in 10.0 mi North 5.8 mph - N/A   Clear
10:53 AM 78.1 °F 52.0 °F 40% 30.25 in 10.0 mi North 4.6 mph - N/A   Clear
11:53 AM 79.0 °F 51.1 °F 38% 30.24 in 10.0 mi ENE 4.6 mph - N/A   Clear
12:53 PM 79.0 °F 48.0 °F 34% 30.23 in 10.0 mi Calm Calm - N/A   Mostly Cloudy
1:53 PM 80.1 °F 48.0 °F 32% 30.22 in 10.0 mi Calm Calm - N/A   Scattered Clouds
2:53 PM 81.0 °F 48.9 °F 33% 30.21 in 10.0 mi North 5.8 mph - N/A   Mostly Cloudy
3:53 PM 81.0 °F 46.0 °F 29% 30.20 in 8.0 mi Calm Calm - N/A   Clear
4:53 PM 82.9 °F 46.0 °F 27% 30.19 in 10.0 mi East 4.6 mph - N/A   Clear
5:53 PM 82.0 °F 48.0 °F 30% 30.19 in 10.0 mi North 3.5 mph - N/A   Clear
6:53 PM 81.0 °F 48.9 °F 33% 30.17 in 10.0 mi Calm Calm - N/A   Clear
7:53 PM 78.1 °F 53.1 °F 42% 30.17 in 10.0 mi East 5.8 mph - N/A   Scattered Clouds
8:53 PM 73.9 °F 55.9 °F 53% 30.16 in 10.0 mi East 4.6 mph - N/A   Clear
9:53 PM 68.0 °F 55.9 °F 65% 30.16 in 10.0 mi Calm Calm - N/A   Clear
10:53 PM 66.0 °F 55.9 °F 70% 30.17 in 10.0 mi Calm Calm - N/A   Clear
11:53 PM 60.1 °F 55.0 °F 83% 30.17 in 10.0 mi Calm Calm - N/A   Clear